Year,Month,Day,Hour,Minute,Value (Times are PST for temperature in C)
2015,04,22,09,52,11.30
2015,04,22,09,53,11.30
2015,04,22,09,54,11.30
2015,04,22,09,55,11.30
2015,04,22,09,56,11.40
2015,04,22,09,57,11.40
2015,04,22,09,58,11.50
2015,04,22,09,59,11.50
2015,04,22,10,00,11.50
2015,04,22,10,01,11.50
2015,04,22,10,02,11.40
2015,04,22,10,03,11.40
2015,04,22,10,04,11.40
2015,04,22,10,05,11.50
2015,04,22,10,06,11.60
2015,04,22,10,07,11.50
2015,04,22,10,08,11.40
2015,04,22,10,09,11.30
2015,04,22,10,10,11.10
2015,04,22,10,11,11.10
2015,04,22,10,12,11.10
2015,04,22,10,13,11.10
2015,04,22,10,14,11.10
2015,04,22,10,15,11.10
2015,04,22,10,16,11.20
2015,04,22,10,17,11.30
2015,04,22,10,18,11.30
2015,04,22,10,19,11.50
2015,04,22,10,20,11.50
2015,04,22,10,21,11.50
2015,04,22,10,22,11.60
2015,04,22,10,23,11.60
2015,04,22,10,24,11.60
2015,04,22,10,25,11.60
2015,04,22,10,26,11.60
2015,04,22,10,27,11.60
2015,04,22,10,28,11.60
2015,04,22,10,29,11.60
2015,04,22,10,30,11.60
2015,04,22,10,31,11.60
2015,04,22,10,32,11.60
2015,04,22,10,33,11.60
2015,04,22,10,34,11.60
2015,04,22,10,35,11.70
2015,04,22,10,36,11.70
2015,04,22,10,37,11.90
2015,04,22,10,38,11.90
2015,04,22,10,39,11.90
2015,04,22,10,40,11.80
2015,04,22,10,41,11.70
2015,04,22,10,42,11.70
2015,04,22,10,43,11.70
2015,04,22,10,44,11.60
2015,04,22,10,45,11.60
2015,04,22,10,46,11.60
2015,04,22,10,47,11.60
2015,04,22,10,48,11.50
2015,04,22,10,49,11.50
2015,04,22,10,50,11.60
2015,04,22,10,51,11.70
2015,04,22,10,52,11.80
2015,04,22,10,53,12.00
2015,04,22,10,54,12.10
2015,04,22,10,55,12.20
2015,04,22,10,56,12.40
2015,04,22,10,57,12.40
2015,04,22,10,58,12.40
2015,04,22,10,59,12.50
2015,04,22,11,00,12.50
2015,04,22,11,01,12.50
2015,04,22,11,02,12.50
2015,04,22,11,03,12.60
2015,04,22,11,04,12.60
2015,04,22,11,05,12.50
2015,04,22,11,06,12.50
2015,04,22,11,07,12.50
2015,04,22,11,08,12.60
2015,04,22,11,09,12.70
2015,04,22,11,10,12.80
2015,04,22,11,11,12.80
2015,04,22,11,12,12.70
2015,04,22,11,13,12.70
2015,04,22,11,14,12.70
2015,04,22,11,15,12.70
2015,04,22,11,16,12.50
2015,04,22,11,17,12.40
2015,04,22,11,18,12.20
2015,04,22,11,19,12.20
2015,04,22,11,20,12.20
2015,04,22,11,21,12.20
2015,04,22,11,22,12.30
2015,04,22,11,23,12.20
2015,04,22,11,24,12.10
2015,04,22,11,25,12.10
2015,04,22,11,26,12.10
2015,04,22,11,27,12.00
2015,04,22,11,28,11.90
2015,04,22,11,29,11.80
2015,04,22,11,30,11.80
2015,04,22,11,31,11.90
2015,04,22,11,32,12.00
2015,04,22,11,33,12.00
2015,04,22,11,34,12.10
2015,04,22,11,35,12.20
2015,04,22,11,36,12.20
2015,04,22,11,37,12.30
2015,04,22,11,38,12.30
2015,04,22,11,39,12.20
2015,04,22,11,40,12.20
2015,04,22,11,41,12.30
2015,04,22,11,42,12.30
2015,04,22,11,43,12.40
2015,04,22,11,44,12.50
2015,04,22,11,45,12.50
2015,04,22,11,46,12.50
2015,04,22,11,47,12.40
2015,04,22,11,48,12.40
2015,04,22,11,49,12.30
2015,04,22,11,50,12.10
2015,04,22,11,51,11.90
2015,04,22,11,52,11.80
2015,04,22,11,53,11.70
2015,04,22,11,54,11.70
2015,04,22,11,55,11.70
2015,04,22,11,56,11.60
2015,04,22,11,57,11.50
2015,04,22,11,58,11.50
2015,04,22,11,59,11.50
2015,04,22,12,00,11.50
2015,04,22,12,01,11.60
2015,04,22,12,02,11.70
2015,04,22,12,03,11.80
2015,04,22,12,04,11.80
2015,04,22,12,05,12.00
2015,04,22,12,06,12.00
2015,04,22,12,07,11.90
2015,04,22,12,08,11.70
2015,04,22,12,09,11.60
2015,04,22,12,10,11.50
2015,04,22,12,11,11.40
2015,04,22,12,12,11.40
2015,04,22,12,13,11.50
2015,04,22,12,14,11.50
2015,04,22,12,15,11.50
2015,04,22,12,16,11.50
2015,04,22,12,17,11.50
2015,04,22,12,18,11.40
2015,04,22,12,19,11.40
2015,04,22,12,20,11.40
2015,04,22,12,21,11.50
2015,04,22,12,22,11.60
2015,04,22,12,23,11.50
2015,04,22,12,24,11.50
2015,04,22,12,25,11.40
2015,04,22,12,26,11.30
2015,04,22,12,27,11.30
2015,04,22,12,28,11.40
2015,04,22,12,29,11.40
2015,04,22,12,30,11.40
2015,04,22,12,31,11.30
2015,04,22,12,32,11.40
2015,04,22,12,33,11.50
2015,04,22,12,34,11.60
2015,04,22,12,35,11.80
2015,04,22,12,36,12.00
2015,04,22,12,37,12.20
2015,04,22,12,38,12.40
2015,04,22,12,39,12.30
2015,04,22,12,40,12.30
2015,04,22,12,41,12.30
2015,04,22,12,42,12.30
2015,04,22,12,43,12.30
2015,04,22,12,44,12.30
2015,04,22,12,45,12.30
2015,04,22,12,46,12.30
2015,04,22,12,47,12.20
2015,04,22,12,48,12.10
2015,04,22,12,49,12.10
2015,04,22,12,50,12.30
2015,04,22,12,51,12.30
2015,04,22,12,52,12.30
2015,04,22,12,53,12.20
2015,04,22,12,54,12.20
2015,04,22,12,55,12.20
2015,04,22,12,56,12.10
2015,04,22,12,57,12.00
2015,04,22,12,58,11.80
2015,04,22,12,59,11.80
2015,04,22,13,00,11.80
2015,04,22,13,01,11.80
2015,04,22,13,02,11.90
2015,04,22,13,03,12.00
2015,04,22,13,04,12.20
2015,04,22,13,05,12.30
2015,04,22,13,06,12.60
2015,04,22,13,07,12.70
2015,04,22,13,08,12.80
2015,04,22,13,09,12.80
2015,04,22,13,10,12.90
2015,04,22,13,11,12.80
2015,04,22,13,12,12.80
2015,04,22,13,13,12.80
2015,04,22,13,14,12.60
2015,04,22,13,15,12.60
2015,04,22,13,16,12.60
2015,04,22,13,17,12.60
2015,04,22,13,18,12.60
2015,04,22,13,19,12.70
2015,04,22,13,20,12.70
2015,04,22,13,21,12.80
2015,04,22,13,22,12.90
2015,04,22,13,23,12.90
2015,04,22,13,24,12.80
2015,04,22,13,25,12.80
2015,04,22,13,26,12.90
2015,04,22,13,27,12.90
2015,04,22,13,28,12.90
2015,04,22,13,29,13.00
2015,04,22,13,30,13.10
2015,04,22,13,31,13.30
2015,04,22,13,32,13.40
2015,04,22,13,33,13.40
2015,04,22,13,34,13.20
2015,04,22,13,35,12.80
2015,04,22,13,36,12.60
2015,04,22,13,37,12.50
2015,04,22,13,38,12.60
2015,04,22,13,39,12.60
2015,04,22,13,40,12.60
2015,04,22,13,41,12.60
2015,04,22,13,42,12.60
2015,04,22,13,43,12.60
2015,04,22,13,44,12.70
2015,04,22,13,45,12.70
2015,04,22,13,46,12.60
2015,04,22,13,47,12.60
2015,04,22,13,48,12.60
2015,04,22,13,49,12.70
2015,04,22,13,50,12.80
2015,04,22,13,51,12.90
2015,04,22,13,52,12.80
2015,04,22,13,53,12.90
2015,04,22,13,54,13.00
2015,04,22,13,55,13.20
2015,04,22,13,56,13.20
2015,04,22,13,57,13.20
2015,04,22,13,58,13.10
2015,04,22,13,59,12.90
2015,04,22,14,00,12.50
2015,04,22,14,01,12.20
2015,04,22,14,02,12.00
2015,04,22,14,03,12.00
2015,04,22,14,04,12.20
2015,04,22,14,05,12.30
2015,04,22,14,06,12.50
2015,04,22,14,07,12.50
2015,04,22,14,08,12.50
2015,04,22,14,09,12.50
2015,04,22,14,10,12.60
2015,04,22,14,11,12.70
2015,04,22,14,12,12.70
2015,04,22,14,13,12.70
2015,04,22,14,14,12.70
2015,04,22,14,15,12.60
2015,04,22,14,16,12.60
2015,04,22,14,17,12.60
2015,04,22,14,18,12.60
2015,04,22,14,19,12.80
2015,04,22,14,20,12.90
2015,04,22,14,21,13.00
2015,04,22,14,22,13.00
2015,04,22,14,23,13.00
2015,04,22,14,24,12.90
2015,04,22,14,25,13.00
2015,04,22,14,26,13.00
2015,04,22,14,27,12.90
2015,04,22,14,28,12.80
2015,04,22,14,29,12.90
2015,04,22,14,30,13.00
2015,04,22,14,31,13.00
2015,04,22,14,32,12.90
2015,04,22,14,33,12.80
2015,04,22,14,34,12.80
2015,04,22,14,35,12.90
2015,04,22,14,36,13.00
2015,04,22,14,37,13.00
2015,04,22,14,38,12.90
2015,04,22,14,39,12.90
2015,04,22,14,40,13.00
2015,04,22,14,41,13.10
2015,04,22,14,42,13.20
2015,04,22,14,43,13.30
2015,04,22,14,44,13.50
2015,04,22,14,45,13.60
2015,04,22,14,46,13.50
2015,04,22,14,47,13.40
2015,04,22,14,48,13.30
2015,04,22,14,49,13.10
2015,04,22,14,50,13.10
2015,04,22,14,51,13.10
2015,04,22,14,52,13.20
2015,04,22,14,53,13.20
2015,04,22,14,54,13.30
2015,04,22,14,55,13.30
2015,04,22,14,56,13.30
2015,04,22,14,57,13.30
2015,04,22,14,58,13.30
2015,04,22,14,59,13.20
2015,04,22,15,00,13.20
2015,04,22,15,01,13.10
2015,04,22,15,02,13.00
2015,04,22,15,03,13.00
2015,04,22,15,04,13.10
2015,04,22,15,05,13.20
2015,04,22,15,06,13.40
2015,04,22,15,07,13.50
2015,04,22,15,08,13.60
2015,04,22,15,09,13.70
2015,04,22,15,10,13.60
2015,04,22,15,11,13.60
2015,04,22,15,12,13.70
2015,04,22,15,13,13.70
2015,04,22,15,14,13.60
2015,04,22,15,15,13.60
2015,04,22,15,16,13.60
2015,04,22,15,17,13.60
2015,04,22,15,18,13.50
2015,04,22,15,19,13.50
2015,04,22,15,20,13.60
2015,04,22,15,21,13.70
2015,04,22,15,22,13.70
2015,04,22,15,23,13.80
2015,04,22,15,24,13.90
2015,04,22,15,25,13.90
2015,04,22,15,26,14.00
2015,04,22,15,27,14.00
2015,04,22,15,28,14.00
2015,04,22,15,29,13.90
2015,04,22,15,30,13.70
2015,04,22,15,31,13.70
2015,04,22,15,32,13.60
2015,04,22,15,33,13.50
2015,04,22,15,34,13.40
2015,04,22,15,35,13.30
2015,04,22,15,36,13.30
2015,04,22,15,37,13.20
2015,04,22,15,38,13.20
2015,04,22,15,39,13.10
2015,04,22,15,40,13.00
2015,04,22,15,41,12.90
2015,04,22,15,42,12.80
2015,04,22,15,43,12.80
2015,04,22,15,44,12.80
2015,04,22,15,45,13.00
2015,04,22,15,46,13.10
2015,04,22,15,47,13.10
2015,04,22,15,48,13.10
2015,04,22,15,49,13.00
2015,04,22,15,50,12.80
2015,04,22,15,51,12.70
2015,04,22,15,52,12.60
2015,04,22,15,53,12.60
2015,04,22,15,54,12.70
2015,04,22,15,55,12.80
2015,04,22,15,56,12.90
2015,04,22,15,57,12.90
2015,04,22,15,58,12.90
2015,04,22,15,59,12.80
2015,04,22,16,00,12.60
2015,04,22,16,01,12.40
2015,04,22,16,02,12.40
2015,04,22,16,03,12.40
2015,04,22,16,04,12.40
2015,04,22,16,05,12.30
2015,04,22,16,06,12.20
2015,04,22,16,07,12.20
2015,04,22,16,08,12.10
2015,04,22,16,09,12.10
2015,04,22,16,10,12.10
2015,04,22,16,11,12.10
2015,04,22,16,12,12.10
2015,04,22,16,13,12.10
2015,04,22,16,14,12.10
2015,04,22,16,15,12.10
2015,04,22,16,16,12.10
2015,04,22,16,17,12.10
2015,04,22,16,18,12.10
2015,04,22,16,19,12.00
2015,04,22,16,20,12.00
2015,04,22,16,21,12.00
2015,04,22,16,22,11.90
2015,04,22,16,23,11.90
2015,04,22,16,24,11.80
2015,04,22,16,25,11.80
2015,04,22,16,26,11.90
2015,04,22,16,27,11.90
2015,04,22,16,28,12.00
2015,04,22,16,29,12.00
2015,04,22,16,30,12.10
2015,04,22,16,31,12.10
2015,04,22,16,32,12.10
2015,04,22,16,33,12.10
2015,04,22,16,34,12.20
2015,04,22,16,35,12.20
2015,04,22,16,36,12.20
2015,04,22,16,37,12.10
2015,04,22,16,38,12.10
2015,04,22,16,39,12.10
2015,04,22,16,40,12.10
2015,04,22,16,41,12.10
2015,04,22,16,42,12.00
2015,04,22,16,43,11.90
2015,04,22,16,44,11.90
2015,04,22,16,45,11.80
2015,04,22,16,46,11.80
2015,04,22,16,47,11.80
2015,04,22,16,48,11.80
2015,04,22,16,49,11.80
2015,04,22,16,50,11.80
2015,04,22,16,51,11.90
2015,04,22,16,52,11.90
2015,04,22,16,53,11.90
2015,04,22,16,54,11.90
2015,04,22,16,55,11.80
2015,04,22,16,56,11.80
2015,04,22,16,57,11.80
2015,04,22,16,58,11.80
2015,04,22,16,59,11.70
2015,04,22,17,00,11.70
2015,04,22,17,01,11.70
2015,04,22,17,02,11.70
2015,04,22,17,03,11.60
2015,04,22,17,04,11.60
2015,04,22,17,05,11.60
2015,04,22,17,06,11.60
2015,04,22,17,07,11.50
2015,04,22,17,08,11.40
2015,04,22,17,09,11.40
2015,04,22,17,10,11.40
2015,04,22,17,11,11.30
2015,04,22,17,12,11.30
2015,04,22,17,13,11.30
2015,04,22,17,14,11.30
2015,04,22,17,15,11.30
2015,04,22,17,16,11.30
2015,04,22,17,17,11.30
2015,04,22,17,18,11.30
2015,04,22,17,19,11.30
2015,04,22,17,20,11.30
2015,04,22,17,21,11.30
2015,04,22,17,22,11.30
2015,04,22,17,23,11.30
2015,04,22,17,24,11.30
2015,04,22,17,25,11.30
2015,04,22,17,26,11.30
2015,04,22,17,27,11.30
2015,04,22,17,28,11.30
2015,04,22,17,29,11.30
2015,04,22,17,30,11.30
2015,04,22,17,31,11.30
2015,04,22,17,32,11.30
2015,04,22,17,33,11.30
2015,04,22,17,34,11.30
2015,04,22,17,35,11.30
2015,04,22,17,36,11.40
2015,04,22,17,37,11.40
2015,04,22,17,38,11.50
2015,04,22,17,39,11.50
2015,04,22,17,40,11.60
2015,04,22,17,41,11.60
2015,04,22,17,42,11.70
2015,04,22,17,43,11.80
2015,04,22,17,44,11.90
2015,04,22,17,45,12.00
2015,04,22,17,46,12.10
2015,04,22,17,47,12.10
2015,04,22,17,48,12.20
2015,04,22,17,49,12.10
2015,04,22,17,50,12.20
2015,04,22,17,51,12.10
2015,04,22,17,52,11.90
2015,04,22,17,53,11.80
2015,04,22,17,54,11.80
2015,04,22,17,55,11.70
2015,04,22,17,56,11.70
2015,04,22,17,57,11.70
2015,04,22,17,58,11.60
2015,04,22,17,59,11.60
2015,04,22,18,00,11.60
2015,04,22,18,01,11.60
2015,04,22,18,02,11.60
2015,04,22,18,03,11.50
2015,04,22,18,04,11.50
2015,04,22,18,05,11.50
2015,04,22,18,06,11.50
2015,04,22,18,07,11.50
2015,04,22,18,08,11.50
2015,04,22,18,09,11.50
2015,04,22,18,10,11.60
2015,04,22,18,11,11.60
2015,04,22,18,12,11.60
2015,04,22,18,13,11.70
2015,04,22,18,14,11.70
2015,04,22,18,15,11.70
2015,04,22,18,16,11.80
2015,04,22,18,17,11.80
2015,04,22,18,18,11.80
2015,04,22,18,19,11.80
2015,04,22,18,20,11.80
2015,04,22,18,21,11.80
2015,04,22,18,22,11.80
2015,04,22,18,23,11.80
2015,04,22,18,24,11.80
2015,04,22,18,25,11.80
2015,04,22,18,26,11.80
2015,04,22,18,27,11.90
2015,04,22,18,28,11.90
2015,04,22,18,29,11.90
2015,04,22,18,30,11.90
2015,04,22,18,31,11.90
2015,04,22,18,32,11.80
2015,04,22,18,33,11.80
2015,04,22,18,34,11.80
2015,04,22,18,35,11.80
2015,04,22,18,36,11.70
2015,04,22,18,37,11.70
2015,04,22,18,38,11.70
2015,04,22,18,39,11.70
2015,04,22,18,40,11.70
2015,04,22,18,41,11.70
2015,04,22,18,42,11.70
2015,04,22,18,43,11.70
2015,04,22,18,44,11.70
2015,04,22,18,45,11.70
2015,04,22,18,46,11.70
2015,04,22,18,47,11.60
2015,04,22,18,48,11.60
2015,04,22,18,49,11.60
2015,04,22,18,50,11.60
2015,04,22,18,51,11.60
2015,04,22,18,52,11.50
2015,04,22,18,53,11.50
2015,04,22,18,54,11.40
2015,04,22,18,55,11.40
2015,04,22,18,56,11.40
2015,04,22,18,57,11.30
2015,04,22,18,58,11.30
2015,04,22,18,59,11.30
2015,04,22,19,00,11.30
2015,04,22,19,01,11.30
2015,04,22,19,02,11.30
2015,04,22,19,03,11.30
2015,04,22,19,04,11.30
2015,04,22,19,05,11.30
2015,04,22,19,06,11.30
